EW0561 Weather Reports


time (UTC)temp
F
wind
direction
speed
knots
gust
knots
rain 1hr
in
rain 24hr
in
rain mn
in
humidity
%
barometer
mb
20260504174555 77 187 0.0 1.7 0.00 0.00 0.00 49 1017.2
20260504173054 77 180 0.0 2.6 0.00 0.00 0.00 48 1017.4
20260504171553 77 118 0.0 3.5 0.00 0.00 0.00 48 1017.2
20260504120104 52 170 0.0 0.0 0.00 0.00 0.00 92 1017.7
20260504081528 55 170 0.0 0.0 0.00 0.00 0.00 90 1017.5
20260504050115 59 170 0.0 0.0 0.00 0.00 0.00 84 1018.8
20260504044559 60 170 0.0 0.0 0.00 0.00 0.00 84 1018.8
20260504043105 60 170 0.0 0.0 0.00 0.00 0.00 84 1018.8
20260504041559 60 170 0.0 0.0 0.00 0.00 0.00 84 1018.9
20260504040104 60 170 0.0 0.0 0.00 0.00 0.00 83 1018.9
20260504034615 60 170 0.0 0.0 0.00 0.00 0.00 83 1018.9
20260504033103 61 170 0.0 0.0 0.00 0.00 0.00 83 1018.9
20260504031603 61 170 0.0 0.0 0.00 0.00 0.00 81 1018.9
20260504030055 61 170 0.0 0.0 0.00 0.00 0.00 79 1018.9
20260504024558 62 170 0.0 0.0 0.00 0.00 0.00 78 1018.7
20260504023054 62 170 0.0 0.0 0.00 0.00 0.00 77 1018.6
20260504021557 63 170 0.0 0.0 0.00 0.00 0.00 75 1018.5
20260504020103 63 170 0.0 0.0 0.00 0.00 0.00 74 1018.3
20260504014556 64 170 0.0 0.0 0.00 0.00 0.00 73 1018.1
20260504013050 65 170 0.0 0.0 0.00 0.00 0.00 70 1018.1
20260504011550 66 170 0.0 0.0 0.00 0.00 0.00 67 1017.9
20260504010048 67 170 0.0 0.0 0.00 0.00 0.00 64 1017.7
20260504004548 68 170 0.0 0.0 0.00 0.00 0.00 64 1017.7
20260504003048 69 170 0.0 0.0 0.00 0.00 0.00 62 1017.6
20260504001548 70 170 0.0 0.0 0.00 0.00 0.00 60 1017.5
20260504000048 71 170 0.0 0.0 0.00 0.00 0.00 60 1017.5
20260503234544 72 170 0.0 0.0 0.00 0.00 0.00 58 1017.7
20260503233043 72 171 0.0 0.9 0.00 0.00 0.00 60 1017.7
20260503231542 73 171 0.0 0.9 0.00 0.00 0.00 56 1017.7
20260503230047 73 180 0.0 0.9 0.00 0.00 0.00 58 1017.7
20260503224541 74 176 0.0 0.9 0.00 0.00 0.00 57 1017.8
20260503223039 74 176 0.0 0.9 0.00 0.00 0.00 55 1017.8
20260503221537 75 177 0.0 1.7 0.00 0.00 0.00 51 1018.0
20260503220036 76 205 0.0 0.9 0.00 0.00 0.00 51 1018.1
20260503214541 77 205 0.0 1.7 0.00 0.00 0.00 51 1018.4
20260503213031 77 188 0.0 1.7 0.00 0.00 0.00 49 1018.5
20260503211529 77 169 0.0 1.7 0.00 0.00 0.00 48 1018.8
20260503210027 78 267 0.0 1.7 0.00 0.00 0.00 42 1019.0
20260503204528 77 315 0.0 0.9 0.00 0.00 0.00 42 1019.1
20260503203023 77 38 0.0 0.9 0.00 0.00 0.00 47 1019.3
20260503201523 78 360 0.0 3.5 0.00 0.00 0.00 44 1019.5
20260503200027 77 13 0.0 2.6 0.00 0.00 0.00 45 1019.8
20260503194521 76 75 0.0 1.7 0.00 0.00 0.00 43 1020.0
20260503193028 77 288 0.0 2.6 0.00 0.00 0.00 47 1020.4
20260503191520 78 345 0.0 2.6 0.00 0.00 0.00 51 1020.5
20260503190022 77 59 0.0 1.7 0.00 0.00 0.00 42 1020.6
20260503184518 77 152 0.0 2.6 0.00 0.00 0.00 45 1020.8
20260503183016 78 254 0.0 2.6 0.00 0.00 0.00 46 1021.1
20260503181514 76 98 0.0 0.9 0.00 0.00 0.00 44 1021.3
20260503180018 76 334 0.0 2.6 0.00 0.00 0.00 45 1021.4